This demonstration page uses our WeatherBlox Daily Observations layout. Learn more.

Left ArrowRight Arrow

Hourly Observations for December 18, 2018

Temp ( °F °C ) Dew Point ( °F °C ) Humidity (%) Winds ( mph kmh ) Pressure ( in mb ) Visibility ( mi km ) Precip ( " mm )
12:53 am 00:53 Clear 38 3.3 29 -1.7 70 70 SSW 10 17 30.02 1017 10 16 0.00 0.00
1:53 am 01:53 Clear 38 3.3 29 -1.7 70 70 SSW 9 15 29.99 1016 10 16 0.00 0.00
2:53 am 02:53 Clear 37 2.8 29 -1.7 73 73 S 7 11 29.99 1016 10 16 0.00 0.00
3:53 am 03:53 Clear 38 3.3 28 -2.2 68 68 SSW 9 15 29.97 1015 10 16 0.00 0.00
4:53 am 04:53 Clear 39 3.9 28 -2.2 65 65 SSW 12 19 29.94 1014 10 16 0.00 0.00
5:53 am 05:53 Clear 38 3.3 27 -2.8 65 65 SSW 12 19 29.95 1014 10 16 0.00 0.00
6:53 am 06:53 Clear 37 2.8 28 -2.2 70 70 SSW 6 9 29.95 1014 10 16 0.00 0.00
7:53 am 07:53 Sunny 36 2.2 28 -2.2 73 73 SSW 7 11 29.95 1014 10 16 0.00 0.00
8:53 am 08:53 Sunny 37 2.8 28 -2.2 70 70 SSW 9 15 29.96 1015 10 16 0.00 0.00
9:53 am 09:53 Sunny 37 2.8 29 -1.7 73 73 S 6 9 29.98 1015 10 16 0.00 0.00
10:53 am 10:53 Sunny 39 3.9 29 -1.7 67 67 SSW 7 11 29.96 1015 10 16 0.00 0.00
11:53 am 11:53 Sunny 43 6.1 30 -1.1 60 60 S 8 13 29.93 1014 10 16 0.00 0.00
12:53 pm 12:53 Sunny 44 6.7 31 -0.6 60 60 S 9 15 29.90 1012 10 16 0.00 0.00
1:53 pm 13:53 Sunny 46 7.8 32 0 58 58 SW 3 6 29.88 1012 10 16 0.00 0.00
2:53 pm 14:53 Sunny 47 8.3 33 0.6 59 59 SSW 6 9 29.87 1011 10 16 0.00 0.00
3:53 pm 15:53 Sunny 47 8.3 33 0.6 59 59 S 8 13 29.86 1011 10 16 0.00 0.00
4:53 pm 16:53 Sunny 45 7.2 33 0.6 63 63 S 6 9 29.85 1011 10 16 0.00 0.00
5:53 pm 17:53 Clear 43 6.1 33 0.6 68 68 SSW 6 9 29.86 1011 10 16 0.00 0.00
6:53 pm 18:53 Clear 42 5.6 33 0.6 71 71 SSW 8 13 29.85 1011 10 16 0.00 0.00
7:53 pm 19:53 Clear 39 3.9 32 0 76 76 S 6 9 29.85 1011 10 16 0.00 0.00
8:53 pm 20:53 Clear 40 4.4 32 0 73 73 S 6 9 29.83 1010 10 16 0.00 0.00
9:53 pm 21:53 Clear 38 3.3 31 -0.6 76 76 SSW 6 9 29.83 1010 10 16 0.00 0.00
10:53 pm 22:53 Clear 36 2.2 31 -0.6 82 82 SW 5 7 29.82 1010 10 16 0.00 0.00
11:53 pm 23:53 Clear 35 1.7 30 -1.1 82 82 SSW 6 9 29.79 1009 10 16 0.00 0.00

Powered by AerisWeather